Year,Month,Day,Hour,Minute,Value (Times are PST for barometer in hPa)
2015,08,29,00,00,1004.06
2015,08,29,00,01,1004.10
2015,08,29,00,02,1004.10
2015,08,29,00,03,1004.10
2015,08,29,00,04,1004.10
2015,08,29,00,05,1004.06
2015,08,29,00,06,1004.00
2015,08,29,00,07,1003.96
2015,08,29,00,08,1003.93
2015,08,29,00,09,1003.93
2015,08,29,00,10,1003.93
2015,08,29,00,11,1003.96
2015,08,29,00,12,1004.00
2015,08,29,00,13,1003.96
2015,08,29,00,14,1003.90
2015,08,29,00,15,1003.86
2015,08,29,00,16,1003.86
2015,08,29,00,17,1003.79
2015,08,29,00,18,1003.79
2015,08,29,00,19,1003.76
2015,08,29,00,20,1003.69
2015,08,29,00,21,1003.66
2015,08,29,00,22,1003.66
2015,08,29,00,23,1003.59
2015,08,29,00,24,1003.56
2015,08,29,00,25,1003.52
2015,08,29,00,26,1003.49
2015,08,29,00,27,1003.52
2015,08,29,00,28,1003.52
2015,08,29,00,29,1003.46
2015,08,29,00,30,1003.46
2015,08,29,00,31,1003.42
2015,08,29,00,32,1003.39
2015,08,29,00,33,1003.32
2015,08,29,00,34,1003.25
2015,08,29,00,35,1003.29
2015,08,29,00,36,1003.25
2015,08,29,00,37,1003.18
2015,08,29,00,38,1003.18
2015,08,29,00,39,1003.22
2015,08,29,00,40,1003.25
2015,08,29,00,41,1003.25
2015,08,29,00,42,1003.28
2015,08,29,00,43,1003.15
2015,08,29,00,44,1003.16
2015,08,29,00,45,1002.99
2015,08,29,00,46,1003.05
2015,08,29,00,47,1003.08
2015,08,29,00,48,1003.11
2015,08,29,00,49,1003.05
2015,08,29,00,50,1002.97
2015,08,29,00,51,1002.88
2015,08,29,00,52,1002.85
2015,08,29,00,53,1002.81
2015,08,29,00,54,1002.82
2015,08,29,00,55,1002.91
2015,08,29,00,56,1002.95
2015,08,29,00,57,1002.85
2015,08,29,00,58,1002.87
2015,08,29,00,59,1002.74
2015,08,29,01,00,1002.81
2015,08,29,01,01,1002.85
2015,08,29,01,02,1002.78
2015,08,29,01,03,1002.80
2015,08,29,01,04,1002.65
2015,08,29,01,05,1002.71
2015,08,29,01,06,1002.67
2015,08,29,01,07,1002.60
2015,08,29,01,08,1002.51
2015,08,29,01,09,1002.47
2015,08,29,01,10,1002.43
2015,08,29,01,11,1002.34
2015,08,29,01,12,1002.37
2015,08,29,01,13,1002.37
2015,08,29,01,14,1002.41
2015,08,29,01,15,1002.34
2015,08,29,01,16,1002.40
2015,08,29,01,17,1002.30
2015,08,29,01,18,1002.27
2015,08,29,01,19,1002.26
2015,08,29,01,20,1002.13
2015,08,29,01,21,1002.10
2015,08,29,01,22,1002.10
2015,08,29,01,23,1001.99
2015,08,29,01,24,1001.90
2015,08,29,01,25,1001.93
2015,08,29,01,26,1001.93
2015,08,29,01,27,1001.90
2015,08,29,01,28,1001.80
2015,08,29,01,29,1001.78
2015,08,29,01,30,1001.63
2015,08,29,01,31,1001.63
2015,08,29,01,32,1001.63
2015,08,29,01,33,1001.63
2015,08,29,01,34,1001.67
2015,08,29,01,35,1001.79
2015,08,29,01,36,1001.69
2015,08,29,01,37,1001.69
2015,08,29,01,38,1001.67
2015,08,29,01,39,1001.80
2015,08,29,01,40,1001.80
2015,08,29,01,41,1001.83
2015,08,29,01,42,1001.83
2015,08,29,01,43,1001.86
2015,08,29,01,44,1001.90
2015,08,29,01,45,1001.90
2015,08,29,01,46,1001.93
2015,08,29,01,47,1001.90
2015,08,29,01,48,1001.86
2015,08,29,01,49,1001.86
2015,08,29,01,50,1001.86
2015,08,29,01,51,1001.91
2015,08,29,01,52,1001.97
2015,08,29,01,53,1001.90
2015,08,29,01,54,1001.93
2015,08,29,01,55,1001.96
2015,08,29,01,56,1001.91
2015,08,29,01,57,1001.97
2015,08,29,01,58,1001.93
2015,08,29,01,59,1001.86
2015,08,29,02,00,1001.86
2015,08,29,02,01,1001.86
2015,08,29,02,02,1001.79
2015,08,29,02,03,1001.72
2015,08,29,02,04,1001.65
2015,08,29,02,05,1001.59
2015,08,29,02,06,1001.59
2015,08,29,02,07,1001.56
2015,08,29,02,08,1001.52
2015,08,29,02,09,1001.46
2015,08,29,02,10,1001.39
2015,08,29,02,11,1001.32
2015,08,29,02,12,1001.29
2015,08,29,02,13,1001.22
2015,08,29,02,14,1001.19
2015,08,29,02,15,1001.16
2015,08,29,02,16,1001.22
2015,08,29,02,17,1001.22
2015,08,29,02,18,1001.25
2015,08,29,02,19,1001.19
2015,08,29,02,20,1001.19
2015,08,29,02,21,1001.20
2015,08,29,02,22,1001.25
2015,08,29,02,23,1001.23
2015,08,29,02,24,1001.29
2015,08,29,02,25,1001.24
2015,08,29,02,26,1001.13
2015,08,29,02,27,1000.89
2015,08,29,02,28,1000.58
2015,08,29,02,29,1000.25
2015,08,29,02,30,1000.06
2015,08,29,02,31,999.93
2015,08,29,02,32,999.97
2015,08,29,02,33,1000.09
2015,08,29,02,34,1000.33
2015,08,29,02,35,1000.49
2015,08,29,02,36,1000.61
2015,08,29,02,37,1000.60
2015,08,29,02,38,1000.47
2015,08,29,02,39,1000.34
2015,08,29,02,40,1000.31
2015,08,29,02,41,1000.23
2015,08,29,02,42,1000.13
2015,08,29,02,43,1000.06
2015,08,29,02,44,999.96
2015,08,29,02,45,999.87
2015,08,29,02,46,999.87
2015,08,29,02,47,999.87
2015,08,29,02,48,999.87
2015,08,29,02,49,999.90
2015,08,29,02,50,999.91
2015,08,29,02,51,999.76
2015,08,29,02,52,999.79
2015,08,29,02,53,999.70
2015,08,29,02,54,999.66
2015,08,29,02,55,999.63
2015,08,29,02,56,999.59
2015,08,29,02,57,999.59
2015,08,29,02,58,999.53
2015,08,29,02,59,999.53
2015,08,29,03,00,999.56
2015,08,29,03,01,999.65
2015,08,29,03,02,999.80
2015,08,29,03,03,999.83
2015,08,29,03,04,999.83
2015,08,29,03,05,999.90
2015,08,29,03,06,999.83
2015,08,29,03,07,999.90
2015,08,29,03,08,999.87
2015,08,29,03,09,999.93
2015,08,29,03,10,999.90
2015,08,29,03,11,999.90
2015,08,29,03,12,999.87
2015,08,29,03,13,999.80
2015,08,29,03,14,999.70
2015,08,29,03,15,999.70
2015,08,29,03,16,999.73
2015,08,29,03,17,999.63
2015,08,29,03,18,999.59
2015,08,29,03,19,999.53
2015,08,29,03,20,999.46
2015,08,29,03,21,999.46
2015,08,29,03,22,999.39
2015,08,29,03,23,999.29
2015,08,29,03,24,999.32
2015,08,29,03,25,999.36
2015,08,29,03,26,999.29
2015,08,29,03,27,999.32
2015,08,29,03,28,999.36
2015,08,29,03,29,999.46
2015,08,29,03,30,999.53
2015,08,29,03,31,999.46
2015,08,29,03,32,999.53
2015,08,29,03,33,999.53
2015,08,29,03,34,999.46
2015,08,29,03,35,999.46
2015,08,29,03,36,999.43
2015,08,29,03,37,999.32
2015,08,29,03,38,999.39
2015,08,29,03,39,999.39
2015,08,29,03,40,999.26
2015,08,29,03,41,999.22
2015,08,29,03,42,999.19
2015,08,29,03,43,999.22
2015,08,29,03,44,999.29
2015,08,29,03,45,999.29
2015,08,29,03,46,999.32
2015,08,29,03,47,999.32
2015,08,29,03,48,999.33
2015,08,29,03,49,999.43
2015,08,29,03,50,999.32
2015,08,29,03,51,999.32
2015,08,29,03,52,999.22
2015,08,29,03,53,999.11
2015,08,29,03,54,999.02
2015,08,29,03,55,998.92
2015,08,29,03,56,998.91
2015,08,29,03,57,998.82
2015,08,29,03,58,998.78
2015,08,29,03,59,998.71
2015,08,29,04,00,998.65
2015,08,29,04,01,998.58
2015,08,29,04,02,998.61
2015,08,29,04,03,998.53
2015,08,29,04,04,998.41
2015,08,29,04,05,998.44
2015,08,29,04,06,998.41
2015,08,29,04,07,998.34
2015,08,29,04,08,998.34
2015,08,29,04,09,998.24
2015,08,29,04,10,998.26
2015,08,29,04,11,998.10
2015,08,29,04,12,998.10
2015,08,29,04,13,998.17
2015,08,29,04,14,998.14
2015,08,29,04,15,998.17
2015,08,29,04,16,998.16
2015,08,29,04,17,998.04
2015,08,29,04,18,997.97
2015,08,29,04,19,997.97
2015,08,29,04,20,997.87
2015,08,29,04,21,997.83
2015,08,29,04,22,997.83
2015,08,29,04,23,997.87
2015,08,29,04,24,997.83
2015,08,29,04,25,997.83
2015,08,29,04,26,997.73
2015,08,29,04,27,997.70
2015,08,29,04,28,997.50
2015,08,29,04,29,997.53
2015,08,29,04,30,997.50
2015,08,29,04,31,997.43
2015,08,29,04,32,997.36
2015,08,29,04,33,997.33
2015,08,29,04,34,997.19
2015,08,29,04,35,997.16
2015,08,29,04,36,997.26
2015,08,29,04,37,997.32
2015,08,29,04,38,997.16
2015,08,29,04,39,997.12
2015,08,29,04,40,997.05
2015,08,29,04,41,997.12
2015,08,29,04,42,997.22
2015,08,29,04,43,997.09
2015,08,29,04,44,997.05
2015,08,29,04,45,997.12
2015,08,29,04,46,997.16
2015,08,29,04,47,997.09
2015,08,29,04,48,997.16
2015,08,29,04,49,997.26
2015,08,29,04,50,997.26
2015,08,29,04,51,997.26
2015,08,29,04,52,997.33
2015,08,29,04,53,997.29
2015,08,29,04,54,997.29
2015,08,29,04,55,997.28
2015,08,29,04,56,997.16
2015,08,29,04,57,997.16
2015,08,29,04,58,997.16
2015,08,29,04,59,997.09
2015,08,29,05,00,997.12
2015,08,29,05,01,997.19
2015,08,29,05,02,997.15
2015,08,29,05,03,997.05
2015,08,29,05,04,997.09
2015,08,29,05,05,997.16
2015,08,29,05,06,997.09
2015,08,29,05,07,997.09
2015,08,29,05,08,996.99
2015,08,29,05,09,996.95
2015,08,29,05,10,996.95
2015,08,29,05,11,996.99
2015,08,29,05,12,997.09
2015,08,29,05,13,997.09
2015,08,29,05,14,997.16
2015,08,29,05,15,997.19
2015,08,29,05,16,997.22
2015,08,29,05,17,997.19
2015,08,29,05,18,997.19
2015,08,29,05,19,997.22
2015,08,29,05,20,997.19
2015,08,29,05,21,997.19
2015,08,29,05,22,997.19
2015,08,29,05,23,997.22
2015,08,29,05,24,997.22
2015,08,29,05,25,997.19
2015,08,29,05,26,997.19
2015,08,29,05,27,997.16
2015,08,29,05,28,997.22
2015,08,29,05,29,997.26
2015,08,29,05,30,997.33
2015,08,29,05,31,997.39
2015,08,29,05,32,997.36
2015,08,29,05,33,997.39
2015,08,29,05,34,997.43
2015,08,29,05,35,997.39
2015,08,29,05,36,997.46
2015,08,29,05,37,997.46
2015,08,29,05,38,997.50
2015,08,29,05,39,997.56
2015,08,29,05,40,997.60
2015,08,29,05,41,997.63
2015,08,29,05,42,997.66
2015,08,29,05,43,997.63
2015,08,29,05,44,997.66
2015,08,29,05,45,997.60
2015,08,29,05,46,997.63
2015,08,29,05,47,997.56
2015,08,29,05,48,997.56
2015,08,29,05,49,997.63
2015,08,29,05,50,997.66
2015,08,29,05,51,997.71
2015,08,29,05,52,997.84
2015,08,29,05,53,998.05
2015,08,29,05,54,998.20
2015,08,29,05,55,998.10
2015,08,29,05,56,998.14
2015,08,29,05,57,998.10
2015,08,29,05,58,998.03
2015,08,29,05,59,997.90
2015,08,29,06,00,997.80
2015,08,29,06,01,997.87
2015,08,29,06,02,997.91
2015,08,29,06,03,998.07
2015,08,29,06,04,998.04
2015,08,29,06,05,997.97
2015,08,29,06,06,998.04
2015,08,29,06,07,998.04
2015,08,29,06,08,998.04
2015,08,29,06,09,998.00
2015,08,29,06,10,998.04
2015,08,29,06,11,998.00
2015,08,29,06,12,998.00
2015,08,29,06,13,997.97
2015,08,29,06,14,998.00
2015,08,29,06,15,998.04
2015,08,29,06,16,998.00
2015,08,29,06,17,998.04
2015,08,29,06,18,998.00
2015,08,29,06,19,997.93
2015,08,29,06,20,997.87
2015,08,29,06,21,997.83
2015,08,29,06,22,997.77
2015,08,29,06,23,997.73
2015,08,29,06,24,997.77
2015,08,29,06,25,997.80
2015,08,29,06,26,997.80
2015,08,29,06,27,997.73
2015,08,29,06,28,997.65
2015,08,29,06,29,997.50
2015,08,29,06,30,997.46
2015,08,29,06,31,997.50
2015,08,29,06,32,997.53
2015,08,29,06,33,997.54
2015,08,29,06,34,997.65
2015,08,29,06,35,997.53
2015,08,29,06,36,997.56
2015,08,29,06,37,997.50
2015,08,29,06,38,997.25
2015,08,29,06,39,997.16
2015,08,29,06,40,997.09
2015,08,29,06,41,996.99
2015,08,29,06,42,997.02
2015,08,29,06,43,997.04
2015,08,29,06,44,996.93
2015,08,29,06,45,996.79
2015,08,29,06,46,996.89
2015,08,29,06,47,996.78
2015,08,29,06,48,996.78
2015,08,29,06,49,996.77
2015,08,29,06,50,996.64
2015,08,29,06,51,996.57
2015,08,29,06,52,996.51
2015,08,29,06,53,996.54
2015,08,29,06,54,996.42
2015,08,29,06,55,996.49
2015,08,29,06,56,996.61
2015,08,29,06,57,996.54
2015,08,29,06,58,996.38
2015,08,29,06,59,996.41
2015,08,29,07,00,996.31
2015,08,29,07,01,996.34
2015,08,29,07,02,996.31
2015,08,29,07,03,996.27
2015,08,29,07,04,996.14
2015,08,29,07,05,996.10
2015,08,29,07,06,995.94
2015,08,29,07,07,995.87
2015,08,29,07,08,995.90
2015,08,29,07,09,995.95
2015,08,29,07,10,996.01
2015,08,29,07,11,996.04
2015,08,29,07,12,996.01
2015,08,29,07,13,996.00
2015,08,29,07,14,995.93
2015,08,29,07,15,995.87
2015,08,29,07,16,995.80
2015,08,29,07,17,995.80
2015,08,29,07,18,995.89
2015,08,29,07,19,995.73
2015,08,29,07,20,995.79
2015,08,29,07,21,995.63
2015,08,29,07,22,995.68
2015,08,29,07,23,995.76
2015,08,29,07,24,995.69
2015,08,29,07,25,995.55
2015,08,29,07,26,995.43
2015,08,29,07,27,995.43
2015,08,29,07,28,995.38
2015,08,29,07,29,994.94
2015,08,29,07,30,995.12
2015,08,29,07,31,995.13
2015,08,29,07,32,995.23
2015,08,29,07,33,994.99
2015,08,29,07,34,994.97
2015,08,29,07,35,995.00
2015,08,29,07,36,994.86
2015,08,29,07,37,994.96
2015,08,29,07,38,994.92
2015,08,29,07,39,994.96
2015,08,29,07,40,994.99
2015,08,29,07,41,995.03
2015,08,29,07,42,995.12
2015,08,29,07,43,995.15
2015,08,29,07,44,995.01
2015,08,29,07,45,994.96
2015,08,29,07,46,994.96
2015,08,29,07,47,994.96
2015,08,29,07,48,995.02
2015,08,29,07,49,995.01
2015,08,29,07,50,994.91
2015,08,29,07,51,994.82
2015,08,29,07,52,995.05
2015,08,29,07,53,994.67
2015,08,29,07,54,994.97
2015,08,29,07,55,995.09
2015,08,29,07,56,995.20
2015,08,29,07,57,995.33
2015,08,29,07,58,995.32
2015,08,29,07,59,995.22
2015,08,29,08,00,995.16
2015,08,29,08,01,995.13
2015,08,29,08,02,995.23
2015,08,29,08,03,995.26
2015,08,29,08,04,995.16
2015,08,29,08,05,995.21
2015,08,29,08,06,995.41
2015,08,29,08,07,995.50
2015,08,29,08,08,995.52
2015,08,29,08,09,995.39
2015,08,29,08,10,995.28
2015,08,29,08,11,995.09
2015,08,29,08,12,994.85
2015,08,29,08,13,994.85
2015,08,29,08,14,994.85
2015,08,29,08,15,994.88
2015,08,29,08,16,994.75
2015,08,29,08,17,994.72
2015,08,29,08,18,994.68
2015,08,29,08,19,994.70
2015,08,29,08,20,994.86
2015,08,29,08,21,994.91
2015,08,29,08,22,994.79
2015,08,29,08,23,994.75
2015,08,29,08,24,994.71
2015,08,29,08,25,994.58
2015,08,29,08,26,994.57
2015,08,29,08,27,994.41
2015,08,29,08,28,994.45
2015,08,29,08,29,994.45
2015,08,29,08,30,994.47
2015,08,29,08,31,994.69
2015,08,29,08,32,994.77
2015,08,29,08,33,994.56
2015,08,29,08,34,994.66
2015,08,29,08,35,994.71
2015,08,29,08,36,994.63
2015,08,29,08,37,994.75
2015,08,29,08,38,994.80
2015,08,29,08,39,994.91
2015,08,29,08,40,994.85
2015,08,29,08,41,994.92
2015,08,29,08,42,994.91
2015,08,29,08,43,994.82
2015,08,29,08,44,994.79
2015,08,29,08,45,994.79
2015,08,29,08,46,994.82
2015,08,29,08,47,994.83
2015,08,29,08,48,994.91
2015,08,29,08,49,994.83
2015,08,29,08,50,994.96
2015,08,29,08,51,994.89
2015,08,29,08,52,994.85
2015,08,29,08,53,994.92
2015,08,29,08,54,994.89
2015,08,29,08,55,994.85
2015,08,29,08,56,994.82
2015,08,29,08,57,994.84
2015,08,29,08,58,994.79
2015,08,29,08,59,994.85
2015,08,29,09,00,994.81
2015,08,29,09,01,994.69
2015,08,29,09,02,994.79
2015,08,29,09,03,994.82
2015,08,29,09,04,994.82
2015,08,29,09,05,994.82
2015,08,29,09,06,994.84
2015,08,29,09,07,994.75
2015,08,29,09,08,994.68
2015,08,29,09,09,994.65
2015,08,29,09,10,994.62
2015,08,29,09,11,994.58
2015,08,29,09,12,994.58
2015,08,29,09,13,994.61
2015,08,29,09,14,994.52
2015,08,29,09,15,994.45
2015,08,29,09,16,994.48
2015,08,29,09,17,994.47
2015,08,29,09,18,994.39
2015,08,29,09,19,994.45
2015,08,29,09,20,994.46
2015,08,29,09,21,994.53
2015,08,29,09,22,994.58
2015,08,29,09,23,994.59
2015,08,29,09,24,994.68
2015,08,29,09,25,994.68
2015,08,29,09,26,994.62
2015,08,29,09,27,994.66
2015,08,29,09,28,994.72
2015,08,29,09,29,994.80
2015,08,29,09,30,994.85
2015,08,29,09,31,994.84
2015,08,29,09,32,994.74
2015,08,29,09,33,994.67
2015,08,29,09,34,994.59
2015,08,29,09,35,994.71
2015,08,29,09,36,994.58
2015,08,29,09,37,994.58
2015,08,29,09,38,994.58
2015,08,29,09,39,994.52
2015,08,29,09,40,994.48
2015,08,29,09,41,994.52
2015,08,29,09,42,994.52
2015,08,29,09,43,994.48
2015,08,29,09,44,994.48
2015,08,29,09,45,994.47
2015,08,29,09,46,994.42
2015,08,29,09,47,994.47
2015,08,29,09,48,994.39
2015,08,29,09,49,994.48
2015,08,29,09,50,994.52
2015,08,29,09,51,994.58
2015,08,29,09,52,994.55
2015,08,29,09,53,994.58
2015,08,29,09,54,994.56
2015,08,29,09,55,994.61
2015,08,29,09,56,994.52
2015,08,29,09,57,994.48
2015,08,29,09,58,994.48
2015,08,29,09,59,994.52
2015,08,29,10,00,994.51
2015,08,29,10,01,994.38
2015,08,29,10,02,994.38
2015,08,29,10,03,994.35
2015,08,29,10,04,994.27
2015,08,29,10,05,994.20
2015,08,29,10,06,994.03
2015,08,29,10,07,993.94
2015,08,29,10,08,993.93
2015,08,29,10,09,993.79
2015,08,29,10,10,993.69
2015,08,29,10,11,993.59
2015,08,29,10,12,993.45
2015,08,29,10,13,993.25
2015,08,29,10,14,993.13
2015,08,29,10,15,993.14
2015,08,29,10,16,993.23
2015,08,29,10,17,993.19
2015,08,29,10,18,993.19
2015,08,29,10,19,993.17
2015,08,29,10,20,993.23
2015,08,29,10,21,993.26
2015,08,29,10,22,993.22
2015,08,29,10,23,993.16
2015,08,29,10,24,992.66
2015,08,29,10,25,992.74
2015,08,29,10,26,992.97
2015,08,29,10,27,993.04
2015,08,29,10,28,993.09
2015,08,29,10,29,993.14
2015,08,29,10,30,993.20
2015,08,29,10,31,993.25
2015,08,29,10,32,993.16
2015,08,29,10,33,993.13
2015,08,29,10,34,993.13
2015,08,29,10,35,993.11
2015,08,29,10,36,993.33
2015,08,29,10,37,993.32
2015,08,29,10,38,993.24
2015,08,29,10,39,993.29
2015,08,29,10,40,993.19
2015,08,29,10,41,993.15
2015,08,29,10,42,993.03
2015,08,29,10,43,992.99
2015,08,29,10,44,992.94
2015,08,29,10,45,992.80
2015,08,29,10,46,992.88
2015,08,29,10,47,992.81
2015,08,29,10,48,992.76
2015,08,29,10,49,992.88
2015,08,29,10,50,992.83
2015,08,29,10,51,993.23
2015,08,29,10,52,993.17
2015,08,29,10,53,993.04
2015,08,29,10,54,993.13
2015,08,29,10,55,993.14
2015,08,29,10,56,993.19
2015,08,29,10,57,993.17
2015,08,29,10,58,993.23
2015,08,29,10,59,993.25
2015,08,29,11,00,993.12
2015,08,29,11,01,993.07
2015,08,29,11,02,993.18
2015,08,29,11,03,993.12
2015,08,29,11,04,993.07
2015,08,29,11,05,993.12
2015,08,29,11,06,993.00
2015,08,29,11,07,993.08
2015,08,29,11,08,992.98
2015,08,29,11,09,993.13
2015,08,29,11,10,993.12
2015,08,29,11,11,993.04
2015,08,29,11,12,992.92
2015,08,29,11,13,992.91
2015,08,29,11,14,993.09
2015,08,29,11,15,993.08
2015,08,29,11,16,993.03
2015,08,29,11,17,992.99
2015,08,29,11,18,992.96
2015,08,29,11,19,992.97
2015,08,29,11,20,992.77
2015,08,29,11,21,992.94
2015,08,29,11,22,992.81
2015,08,29,11,23,993.00
2015,08,29,11,24,993.08
2015,08,29,11,25,993.03
2015,08,29,11,26,992.95
2015,08,29,11,27,992.93
2015,08,29,11,28,993.06
2015,08,29,11,29,993.08
2015,08,29,11,30,993.22
2015,08,29,11,31,993.12
2015,08,29,11,32,993.40
2015,08,29,11,33,993.39
2015,08,29,11,34,993.31
2015,08,29,11,35,993.40
2015,08,29,11,36,993.40
2015,08,29,11,37,993.38
2015,08,29,11,38,993.20
2015,08,29,11,39,993.34
2015,08,29,11,40,993.43
2015,08,29,11,41,993.48
2015,08,29,11,42,993.56
2015,08,29,11,43,993.50
2015,08,29,11,44,993.49
2015,08,29,11,45,993.63
2015,08,29,11,46,993.90
2015,08,29,11,47,993.81
2015,08,29,11,48,993.89
2015,08,29,11,49,994.04
2015,08,29,11,50,994.08
2015,08,29,11,51,994.10
2015,08,29,11,52,994.06
2015,08,29,11,53,994.16
2015,08,29,11,54,994.09
2015,08,29,11,55,994.26
2015,08,29,11,56,994.56
2015,08,29,11,57,994.62
2015,08,29,11,58,994.62
2015,08,29,11,59,994.59
2015,08,29,12,00,994.74
2015,08,29,12,01,994.92
2015,08,29,12,02,994.96
2015,08,29,12,03,995.00
2015,08,29,12,04,995.06
2015,08,29,12,05,995.06
2015,08,29,12,06,995.03
2015,08,29,12,07,995.07
2015,08,29,12,08,995.12
2015,08,29,12,09,995.09
2015,08,29,12,10,995.08
2015,08,29,12,11,995.00
2015,08,29,12,12,995.09
2015,08,29,12,13,995.27
2015,08,29,12,14,995.37
2015,08,29,12,15,995.44
2015,08,29,12,16,995.53
2015,08,29,12,17,995.53
2015,08,29,12,18,995.53
2015,08,29,12,19,995.53
2015,08,29,12,20,995.53
2015,08,29,12,21,995.54
2015,08,29,12,22,995.63
2015,08,29,12,23,995.60
2015,08,29,12,24,995.64
2015,08,29,12,25,995.71
2015,08,29,12,26,995.75
2015,08,29,12,27,995.88
2015,08,29,12,28,995.90
2015,08,29,12,29,995.88
2015,08,29,12,30,995.94
2015,08,29,12,31,995.94
2015,08,29,12,32,995.93
2015,08,29,12,33,995.87
2015,08,29,12,34,995.87
2015,08,29,12,35,995.91
2015,08,29,12,36,995.94
2015,08,29,12,37,995.98
2015,08,29,12,38,996.02
2015,08,29,12,39,996.08
2015,08,29,12,40,996.22
2015,08,29,12,41,996.34
2015,08,29,12,42,996.39
2015,08,29,12,43,996.46
2015,08,29,12,44,996.52
2015,08,29,12,45,996.55
2015,08,29,12,46,996.59
2015,08,29,12,47,996.69
2015,08,29,12,48,996.76
2015,08,29,12,49,996.82
2015,08,29,12,50,996.78
2015,08,29,12,51,996.78
2015,08,29,12,52,996.75
2015,08,29,12,53,996.75
2015,08,29,12,54,996.77
2015,08,29,12,55,996.95
2015,08,29,12,56,996.95
2015,08,29,12,57,996.92
2015,08,29,12,58,996.89
2015,08,29,12,59,996.89
2015,08,29,13,00,996.90
2015,08,29,13,01,996.96
2015,08,29,13,02,997.02
2015,08,29,13,03,997.02
2015,08,29,13,04,997.05
2015,08,29,13,05,997.06
2015,08,29,13,06,997.14
2015,08,29,13,07,997.27
2015,08,29,13,08,997.35
2015,08,29,13,09,997.51
2015,08,29,13,10,997.62
2015,08,29,13,11,997.81
2015,08,29,13,12,997.90
2015,08,29,13,13,997.86
2015,08,29,13,14,997.80
2015,08,29,13,15,997.78
2015,08,29,13,16,997.87
2015,08,29,13,17,997.86
2015,08,29,13,18,997.76
2015,08,29,13,19,997.71
2015,08,29,13,20,997.76
2015,08,29,13,21,997.73
2015,08,29,13,22,997.74
2015,08,29,13,23,997.86
2015,08,29,13,24,998.01
2015,08,29,13,25,998.15
2015,08,29,13,26,998.22
2015,08,29,13,27,998.34
2015,08,29,13,28,998.34
2015,08,29,13,29,998.34
2015,08,29,13,30,998.38
2015,08,29,13,31,998.42
2015,08,29,13,32,998.48
2015,08,29,13,33,998.48
2015,08,29,13,34,998.50
2015,08,29,13,35,998.45
2015,08,29,13,36,998.51
2015,08,29,13,37,998.56
2015,08,29,13,38,998.65
2015,08,29,13,39,998.69
2015,08,29,13,40,998.79
2015,08,29,13,41,998.89
2015,08,29,13,42,998.95
2015,08,29,13,43,998.96
2015,08,29,13,44,999.02
2015,08,29,13,45,999.06
2015,08,29,13,46,999.10
2015,08,29,13,47,999.17
2015,08,29,13,48,999.30
2015,08,29,13,49,999.40
2015,08,29,13,50,999.49
2015,08,29,13,51,999.49
2015,08,29,13,52,999.53
2015,08,29,13,53,999.56
2015,08,29,13,54,999.59
2015,08,29,13,55,999.57
2015,08,29,13,56,999.68
2015,08,29,13,57,999.83
2015,08,29,13,58,999.84
2015,08,29,13,59,999.87
2015,08,29,14,00,999.86
2015,08,29,14,01,999.84
2015,08,29,14,02,999.94
2015,08,29,14,03,999.99
2015,08,29,14,04,999.90
2015,08,29,14,05,999.94
2015,08,29,14,06,1000.01
2015,08,29,14,07,1000.11
2015,08,29,14,08,1000.20
2015,08,29,14,09,1000.19
2015,08,29,14,10,1000.13
2015,08,29,14,11,1000.09
2015,08,29,14,12,1000.03
2015,08,29,14,13,1000.00
2015,08,29,14,14,999.97
2015,08,29,14,15,1000.00
2015,08,29,14,16,999.97
2015,08,29,14,17,999.93
2015,08,29,14,18,1000.10
2015,08,29,14,19,1000.10
2015,08,29,14,20,1000.27
2015,08,29,14,21,1000.20
2015,08,29,14,22,1000.20
2015,08,29,14,23,1000.20
2015,08,29,14,24,1000.20
2015,08,29,14,25,1000.34
2015,08,29,14,26,1000.24
2015,08,29,14,27,1000.27
2015,08,29,14,28,1000.37
2015,08,29,14,29,1000.34
2015,08,29,14,30,1000.27
2015,08,29,14,31,1000.27
2015,08,29,14,32,1000.31
2015,08,29,14,33,1000.37
2015,08,29,14,34,1000.37
2015,08,29,14,35,1000.37
2015,08,29,14,36,1000.31
2015,08,29,14,37,1000.27
2015,08,29,14,38,1000.10
2015,08,29,14,39,1000.03
2015,08,29,14,40,1000.03
2015,08,29,14,41,1000.10
2015,08,29,14,42,1000.17
2015,08,29,14,43,1000.24
2015,08,29,14,44,1000.41
2015,08,29,14,45,1000.48
2015,08,29,14,46,1000.48
2015,08,29,14,47,1000.37
2015,08,29,14,48,1000.31
2015,08,29,14,49,1000.37
2015,08,29,14,50,1000.44
2015,08,29,14,51,1000.75
2015,08,29,14,52,1000.68
2015,08,29,14,53,1000.61
2015,08,29,14,54,1000.61
2015,08,29,14,55,1000.54
2015,08,29,14,56,1000.68
2015,08,29,14,57,1000.75
2015,08,29,14,58,1000.78
2015,08,29,14,59,1000.68
2015,08,29,15,00,1000.61
2015,08,29,15,01,1000.61
2015,08,29,15,02,1000.61
2015,08,29,15,03,1000.54
2015,08,29,15,04,1000.61
2015,08,29,15,05,1000.54
2015,08,29,15,06,1000.58
2015,08,29,15,07,1000.64
2015,08,29,15,08,1000.68
2015,08,29,15,09,1000.58
2015,08,29,15,10,1000.51
2015,08,29,15,11,1000.71
2015,08,29,15,12,1000.75
2015,08,29,15,13,1000.85
2015,08,29,15,14,1000.95
2015,08,29,15,15,1000.92
2015,08,29,15,16,1000.99
2015,08,29,15,17,1001.12
2015,08,29,15,18,1001.15
2015,08,29,15,19,1001.19
2015,08,29,15,20,1001.19
2015,08,29,15,21,1001.19
2015,08,29,15,22,1001.19
2015,08,29,15,23,1001.19
2015,08,29,15,24,1001.25
2015,08,29,15,25,1001.32
2015,08,29,15,26,1001.36
2015,08,29,15,27,1001.39
2015,08,29,15,28,1001.29
2015,08,29,15,29,1001.32
2015,08,29,15,30,1001.32
2015,08,29,15,31,1001.32
2015,08,29,15,32,1001.39
2015,08,29,15,33,1001.39
2015,08,29,15,34,1001.46
2015,08,29,15,35,1001.46
2015,08,29,15,36,1001.49
2015,08,29,15,37,1001.49
2015,08,29,15,38,1001.53
2015,08,29,15,39,1001.63
2015,08,29,15,40,1001.56
2015,08,29,15,41,1001.69
2015,08,29,15,42,1001.73
2015,08,29,15,43,1001.80
2015,08,29,15,44,1001.83
2015,08,29,15,45,1001.90
2015,08,29,15,46,1001.90
2015,08,29,15,47,1001.97
2015,08,29,15,48,1001.90
2015,08,29,15,49,1001.93
2015,08,29,15,50,1001.83
2015,08,29,15,51,1001.73
2015,08,29,15,52,1001.76
2015,08,29,15,53,1001.83
2015,08,29,15,54,1001.90
2015,08,29,15,55,1002.00
2015,08,29,15,56,1002.03
2015,08,29,15,57,1002.03
2015,08,29,15,58,1002.07
2015,08,29,15,59,1002.17
2015,08,29,16,00,1002.27
2015,08,29,16,01,1002.37
2015,08,29,16,02,1002.41
2015,08,29,16,03,1002.34
2015,08,29,16,04,1002.34
2015,08,29,16,05,1002.34
2015,08,29,16,06,1002.30
2015,08,29,16,07,1002.34
2015,08,29,16,08,1002.34
2015,08,29,16,09,1002.34
2015,08,29,16,10,1002.41
2015,08,29,16,11,1002.47
2015,08,29,16,12,1002.54
2015,08,29,16,13,1002.54
2015,08,29,16,14,1002.54
2015,08,29,16,15,1002.57
2015,08,29,16,16,1002.57
2015,08,29,16,17,1002.57
2015,08,29,16,18,1002.57
2015,08,29,16,19,1002.61
2015,08,29,16,20,1002.68
2015,08,29,16,21,1002.74
2015,08,29,16,22,1002.81
2015,08,29,16,23,1002.78